Janesville, WI

11:31 PM CDT on May 21, 2018 (GMT -0500)
Rock County

Weather History for KJVL - October, 2012

Change the Weather History Date:

Saturday, October 20, 2012

  Actual Average Record
Temperature  
Mean Temperature 46 °F -  
Max Temperature 57 °F 57 °F 80 °F (2017)
Min Temperature 35 °F 38 °F 20 °F (1992)
Degree Days  
Heating Degree Days 19    
Moisture  
Dew Point 37 °F    
Average Humidity 78    
Maximum Humidity 93    
Minimum Humidity 41    
Precipitation  
Precipitation 0.00 in - - ()
Sea Level Pressure  
Sea Level Pressure 29.77 in    
Wind  
Wind Speed 4 mph (West)    
Max Wind Speed 14 mph    
Max Gust Speed -    
Visibility 10 miles    
Events      
Averages and records for this station are not official NWS values.
T = Trace of Precipitation, MM = Missing Value Source: NWS Daily Summary

Daily Weather History Graph

Daily Weather History Graph

Search for Another Location

Airport or City:

Astronomy

Oct. 20, 2012 Rise Set
Actual Time 7:15 AM CDT 6:05 PM CDT
Civil Twilight 6:47 AM CDT 6:33 PM CDT
Nautical Twilight 6:14 AM CDT 7:06 PM CDT
Astronomical Twilight 5:41 AM CDT 7:39 PM CDT
Moon 12:55 PM CDT (10/20) 10:47 PM CDT (10/20)
Length of Visible Light 11h 46m
Length of Day
10h 49m
Waxing Crescent, 34% of the Moon is Illuminated
Oct 20
Waxing Crescent
Oct 21
First Quarter
Oct 29
Full
Nov 6
Last Quarter
Nov 13
New

Hourly Weather History & Observations

Time (CDT) Temp. Windchill Dew Point Humidity Pressure Visibility Wind Dir Wind Speed Gust Speed Precip Events Conditions
12:15 AM 41.0 °F 38.0 °F 37.4 °F 87% 29.65 in 10.0 mi West 4.6 mph - N/A   Overcast
12:35 AM 42.8 °F 39.3 °F 37.4 °F 81% 29.65 in 10.0 mi WNW 5.8 mph - N/A   Overcast
12:55 AM 42.8 °F 40.1 °F 37.4 °F 81% 29.66 in 10.0 mi WNW 4.6 mph - N/A   Overcast
1:15 AM 41.0 °F 37.1 °F 37.4 °F 87% 29.67 in 10.0 mi West 5.8 mph - N/A   Overcast
1:35 AM 42.8 °F 40.1 °F 37.4 °F 81% 29.67 in 10.0 mi West 4.6 mph - N/A   Overcast
1:55 AM 42.8 °F 40.1 °F 37.4 °F 81% 29.68 in 10.0 mi WNW 4.6 mph - N/A   Overcast
2:15 AM 41.0 °F 39.0 °F 37.4 °F 87% 29.68 in 10.0 mi WNW 3.5 mph - N/A   Mostly Cloudy
2:35 AM 39.2 °F 37.0 °F 35.6 °F 87% 29.68 in 10.0 mi WNW 3.5 mph - N/A   Scattered Clouds
2:55 AM 37.4 °F 34.9 °F 35.6 °F 93% 29.68 in 10.0 mi West 3.5 mph - N/A   Clear
3:15 AM 37.4 °F - 35.6 °F 93% 29.68 in 10.0 mi Calm Calm - N/A   Clear
3:35 AM 37.4 °F - 35.6 °F 93% 29.68 in 10.0 mi Calm Calm - N/A   Clear
3:55 AM 37.4 °F - 35.6 °F 93% 29.69 in 10.0 mi Calm Calm - N/A   Clear
4:15 AM 37.4 °F - 35.6 °F 93% 29.70 in 10.0 mi Calm Calm - N/A   Clear
4:35 AM 37.4 °F - 35.6 °F 93% 29.70 in 10.0 mi Calm Calm - N/A   Clear
4:55 AM 35.6 °F - 33.8 °F 93% 29.71 in 10.0 mi Calm Calm - N/A   Clear
5:15 AM 37.4 °F 34.9 °F 35.6 °F 93% 29.71 in 10.0 mi WSW 3.5 mph - N/A   Clear
5:35 AM 37.4 °F - 33.8 °F 87% 29.72 in 10.0 mi Calm Calm - N/A   Clear
5:45 AM 37.4 °F - 35.6 °F 93% 29.72 in 10.0 mi Calm Calm - N/A   Clear
6:45 AM 37.4 °F - 35.6 °F 93% 29.74 in 10.0 mi Calm Calm - N/A   Clear
7:45 AM 37.4 °F - 35.6 °F 93% 29.76 in 10.0 mi Calm Calm - N/A   Clear
8:45 AM 42.8 °F 39.3 °F 37.4 °F 81% 29.78 in 10.0 mi West 5.8 mph - N/A   Clear
9:45 AM 46.4 °F 43.5 °F 39.2 °F 76% 29.78 in 10.0 mi WNW 5.8 mph - N/A   Clear
10:45 AM 51.8 °F - 42.8 °F 71% 29.80 in 10.0 mi WNW 11.5 mph - N/A   Partly Cloudy
11:45 AM 55.4 °F - 39.2 °F 54% 29.80 in 10.0 mi WNW 9.2 mph - N/A   Partly Cloudy
12:45 PM 55.4 °F - 37.4 °F 51% 29.81 in 10.0 mi WNW 12.7 mph - N/A   Scattered Clouds
1:45 PM 57.2 °F - 37.4 °F 48% 29.79 in 10.0 mi NW 13.8 mph - N/A   Scattered Clouds
2:45 PM 57.2 °F - 35.6 °F 44% 29.78 in 10.0 mi NNW 10.4 mph - N/A   Partly Cloudy
4:45 PM 57.2 °F - 33.8 °F 41% 29.81 in 10.0 mi WNW 8.1 mph - N/A   Mostly Cloudy
5:50 PM 55.4 °F - 37.4 °F 51% 29.83 in 10.0 mi Variable 5.8 mph - N/A   Scattered Clouds
6:45 PM 51.8 °F - 35.6 °F 54% 29.84 in 10.0 mi WSW 8.1 mph - N/A   Scattered Clouds
7:45 PM 44.6 °F 38.8 °F 35.6 °F 71% 29.86 in 10.0 mi SW 11.5 mph - N/A   Partly Cloudy
8:45 PM 46.4 °F 42.4 °F 37.4 °F 71% 29.88 in 10.0 mi SW 8.1 mph - N/A   Clear
9:15 PM 44.6 °F 42.2 °F 35.6 °F 71% 29.88 in 10.0 mi SSW 4.6 mph - N/A   Clear
9:35 PM 44.6 °F 43.1 °F 37.4 °F 76% 29.88 in 10.0 mi South 3.5 mph - N/A   Clear
9:55 PM 44.6 °F 43.1 °F 37.4 °F 76% 29.88 in 10.0 mi SSW 3.5 mph - N/A   Clear
10:15 PM 44.6 °F 43.1 °F 37.4 °F 76% 29.88 in 10.0 mi SSW 3.5 mph - N/A   Clear
10:35 PM 42.8 °F - 35.6 °F 76% 29.89 in 10.0 mi Calm Calm - N/A   Clear
10:55 PM 42.8 °F - 35.6 °F 76% 29.90 in 10.0 mi Calm Calm - N/A   Clear
11:15 PM 41.0 °F - 35.6 °F 81% 29.91 in 10.0 mi Calm Calm - N/A   Clear
11:35 PM 42.8 °F - 37.4 °F 81% 29.91 in 10.0 mi Calm Calm - N/A   Clear
11:55 PM 41.0 °F - 35.6 °F 81% 29.92 in 10.0 mi Calm Calm - N/A   Clear